TYR23 LOWK-LSZH

Flight info

Callsign TYR23
Flight time N/A
Altitude 24000
Route VILAK DCT ERKIR L608 KPT L856 NEGRA
Aircraft DH8D/M-SDE2E3FGRY/H

Departure

Time 2026-04-28 18:19
Airport Klagenfurt Airport (LOWK)

Arrival

Time N/A
Airport Zürich Airport (LSZH)
Time Latitude Longitude Altitude Speed Heading
2026-04-28 17:59 46.64923 14.32508 1492 ft 0 kts 74°
2026-04-28 18:16 46.64923 14.32510 1488 ft 2 kts 74°
2026-04-28 18:16 46.64905 14.32582 1488 ft 14 kts 171°
2026-04-28 18:16 46.64792 14.32624 1485 ft 20 kts 166°
2026-04-28 18:17 46.64700 14.32665 1481 ft 14 kts 176°
2026-04-28 18:17 46.64662 14.32581 1480 ft 11 kts 285°
2026-04-28 18:17 46.64656 14.32468 1480 ft 14 kts 209°
2026-04-28 18:17 46.64578 14.32434 1478 ft 13 kts 197°
2026-04-28 18:18 46.64545 14.32320 1477 ft 17 kts 281°
2026-04-28 18:18 46.64586 14.32174 1480 ft 10 kts 308°
2026-04-28 18:18 46.64601 14.32093 1481 ft 7 kts 162°
2026-04-28 18:18 46.64581 14.32143 1480 ft 6 kts 107°
2026-04-28 18:19 46.64449 14.32786 1476 ft 106 kts 106°
2026-04-28 18:19 46.64189 14.34025 1519 ft 145 kts 108°
2026-04-28 18:19 46.63872 14.35503 1828 ft 156 kts 106°
2026-04-28 18:19 46.63550 14.37004 2442 ft 155 kts 107°
2026-04-28 18:20 46.63242 14.38525 2964 ft 162 kts 104°
2026-04-28 18:20 46.62938 14.40141 3463 ft 173 kts 103°
2026-04-28 18:20 46.62611 14.41872 3950 ft 186 kts 104°
2026-04-28 18:20 46.62252 14.43760 4440 ft 200 kts 104°
2026-04-28 18:21 46.61895 14.45810 4888 ft 215 kts 96°
2026-04-28 18:21 46.62211 14.47920 5318 ft 225 kts 56°
2026-04-28 18:21 46.63474 14.49246 5772 ft 236 kts 16°
2026-04-28 18:21 46.65111 14.49087 6227 ft 245 kts 337°
2026-04-28 18:22 46.66378 14.47421 6687 ft 252 kts 298°
2026-04-28 18:22 46.66725 14.44912 7164 ft 258 kts 266°
2026-04-28 18:22 46.66575 14.42285 7669 ft 264 kts 265°
2026-04-28 18:22 46.66483 14.39609 8242 ft 266 kts 268°
2026-04-28 18:23 46.66452 14.36884 8827 ft 267 kts 270°
2026-04-28 18:23 46.66470 14.34203 9398 ft 269 kts 272°
2026-04-28 18:23 46.66525 14.31494 9972 ft 270 kts 273°
2026-04-28 18:23 46.66606 14.28788 10542 ft 270 kts 274°
2026-04-28 18:24 46.66708 14.26045 11120 ft 271 kts 274°
2026-04-28 18:24 46.66785 14.24207 11505 ft 272 kts 275°
2026-04-28 18:24 46.66956 14.20571 12264 ft 273 kts 276°
2026-04-28 18:24 46.67181 14.17827 12835 ft 273 kts 279°
2026-04-28 18:25 46.67447 14.15038 13413 ft 274 kts 279°
2026-04-28 18:25 46.67711 14.12278 13939 ft 277 kts 279°
2026-04-28 18:25 46.67979 14.09486 14443 ft 280 kts 278°
2026-04-28 18:26 46.68523 14.03786 15453 ft 285 kts 278°
2026-04-28 18:26 46.68798 14.00898 15956 ft 287 kts 278°
2026-04-28 18:26 46.69076 13.97969 16458 ft 289 kts 278°
2026-04-28 18:26 46.69353 13.95034 16961 ft 291 kts 278°
2026-04-28 18:27 46.69673 13.92111 17446 ft 293 kts 283°
2026-04-28 18:27 46.70562 13.89430 17947 ft 295 kts 302°
2026-04-28 18:27 46.71697 13.86945 18461 ft 296 kts 302°
2026-04-28 18:27 46.72849 13.84438 18977 ft 297 kts 302°
2026-04-28 18:28 46.73999 13.81935 19488 ft 298 kts 302°
2026-04-28 18:28 46.75144 13.79437 19993 ft 298 kts 301°
2026-04-28 18:28 46.76289 13.76924 20507 ft 299 kts 301°
2026-04-28 18:28 46.77448 13.74389 21012 ft 299 kts 301°
2026-04-28 18:29 46.78591 13.71881 21529 ft 299 kts 302°
2026-04-28 18:29 46.79736 13.69359 22043 ft 299 kts 301°
2026-04-28 18:29 46.80882 13.66828 22553 ft 300 kts 302°
2026-04-28 18:29 46.82047 13.64254 23076 ft 300 kts 302°
2026-04-28 18:30 46.83195 13.61717 23594 ft 301 kts 302°
2026-04-28 18:30 46.83968 13.60007 23862 ft 304 kts 302°
2026-04-28 18:30 46.85560 13.56479 23943 ft 321 kts 302°
2026-04-28 18:30 46.86824 13.53673 23951 ft 331 kts 302°
2026-04-28 18:31 46.88088 13.50860 24087 ft 328 kts 302°
2026-04-28 18:31 46.89334 13.48081 24118 ft 327 kts 302°
2026-04-28 18:31 46.90576 13.45313 24117 ft 327 kts 302°
2026-04-28 18:31 46.91830 13.42520 24102 ft 327 kts 302°
2026-04-28 18:32 46.93082 13.39728 24089 ft 327 kts 301°
2026-04-28 18:32 46.94337 13.36920 24089 ft 327 kts 302°
2026-04-28 18:32 46.95578 13.34144 24097 ft 327 kts 301°
2026-04-28 18:32 46.96835 13.31334 24107 ft 327 kts 301°
2026-04-28 18:33 46.98101 13.28499 24112 ft 327 kts 301°
2026-04-28 18:33 46.99347 13.25709 24115 ft 327 kts 301°
2026-04-28 18:33 47.00597 13.22909 24103 ft 326 kts 301°
2026-04-28 18:33 47.01838 13.20130 24104 ft 323 kts 301°
2026-04-28 18:34 47.03054 13.17401 24107 ft 321 kts 301°
2026-04-28 18:34 47.04274 13.14660 24106 ft 319 kts 301°
2026-04-28 18:34 47.05505 13.11891 24111 ft 318 kts 301°
2026-04-28 18:34 47.06706 13.09187 24105 ft 316 kts 301°
2026-04-28 18:35 47.07910 13.06473 24105 ft 316 kts 301°
2026-04-28 18:35 47.09103 13.03780 24103 ft 315 kts 301°
2026-04-28 18:35 47.10305 13.01065 24100 ft 314 kts 301°
2026-04-28 18:35 47.11499 12.98362 24097 ft 314 kts 301°
2026-04-28 18:36 47.12693 12.95658 24106 ft 313 kts 301°
2026-04-28 18:36 47.13869 12.92994 24110 ft 313 kts 301°
2026-04-28 18:36 47.15073 12.90263 24110 ft 313 kts 301°
2026-04-28 18:36 47.16271 12.87539 24114 ft 313 kts 301°
2026-04-28 18:37 47.17445 12.84870 24119 ft 312 kts 301°
2026-04-28 18:37 47.18626 12.82182 24123 ft 312 kts 301°
2026-04-28 18:37 47.19804 12.79501 24128 ft 312 kts 301°
2026-04-28 18:37 47.21004 12.76764 24133 ft 312 kts 301°
2026-04-28 18:38 47.22186 12.74066 24137 ft 312 kts 301°
2026-04-28 18:38 47.23367 12.71370 24137 ft 312 kts 301°
2026-04-28 18:38 47.24540 12.68685 24137 ft 312 kts 301°
2026-04-28 18:38 47.25720 12.65986 24137 ft 312 kts 301°
2026-04-28 18:39 47.26897 12.63288 24135 ft 311 kts 301°
2026-04-28 18:39 47.28061 12.60617 24133 ft 311 kts 301°
2026-04-28 18:39 47.29243 12.57903 24139 ft 310 kts 301°
2026-04-28 18:39 47.30406 12.55232 24146 ft 310 kts 301°
2026-04-28 18:40 47.31583 12.52524 24148 ft 310 kts 301°
2026-04-28 18:40 47.32751 12.49835 24136 ft 311 kts 301°
2026-04-28 18:40 47.33926 12.47125 24135 ft 311 kts 301°
2026-04-28 18:40 47.35083 12.44456 24141 ft 311 kts 301°
2026-04-28 18:41 47.36253 12.41755 24137 ft 311 kts 301°
2026-04-28 18:41 47.37412 12.39076 24138 ft 311 kts 301°
2026-04-28 18:41 47.38575 12.36387 24132 ft 310 kts 301°
2026-04-28 18:41 47.39749 12.33660 24140 ft 310 kts 300°
2026-04-28 18:42 47.40916 12.30957 24133 ft 311 kts 300°
2026-04-28 18:42 47.42084 12.28246 24138 ft 311 kts 300°
2026-04-28 18:42 47.43254 12.25527 24128 ft 312 kts 300°
2026-04-28 18:42 47.44424 12.22806 24133 ft 312 kts 300°
2026-04-28 18:43 47.45604 12.20064 24126 ft 312 kts 300°
2026-04-28 18:43 47.46772 12.17337 24127 ft 311 kts 300°
2026-04-28 18:43 47.47929 12.14636 24125 ft 312 kts 300°
2026-04-28 18:43 47.49113 12.11873 24124 ft 311 kts 300°
2026-04-28 18:44 47.50264 12.09184 24127 ft 312 kts 300°
2026-04-28 18:44 47.52589 12.03744 24107 ft 313 kts 300°
2026-04-28 18:44 47.53688 12.00970 24076 ft 311 kts 293°
2026-04-28 18:45 47.54273 11.97915 24165 ft 307 kts 282°
2026-04-28 18:45 47.54703 11.94811 24132 ft 307 kts 281°
2026-04-28 18:45 47.55139 11.91653 24100 ft 308 kts 281°
2026-04-28 18:45 47.55572 11.88508 24108 ft 309 kts 281°
2026-04-28 18:46 47.55998 11.85420 24116 ft 309 kts 281°
2026-04-28 18:46 47.56427 11.82317 24120 ft 309 kts 281°
2026-04-28 18:46 47.56858 11.79205 24138 ft 309 kts 281°
2026-04-28 18:46 47.57293 11.76064 24134 ft 310 kts 281°
2026-04-28 18:47 47.57730 11.72914 24135 ft 309 kts 281°
2026-04-28 18:47 47.58167 11.69748 24127 ft 310 kts 282°
2026-04-28 18:47 47.58598 11.66634 24125 ft 310 kts 281°
2026-04-28 18:47 47.59030 11.63496 24128 ft 310 kts 281°
2026-04-28 18:48 47.59463 11.60351 24134 ft 309 kts 281°
2026-04-28 18:48 47.59893 11.57211 24138 ft 309 kts 281°
2026-04-28 18:48 47.60319 11.54114 24127 ft 309 kts 281°
2026-04-28 18:48 47.60749 11.50972 24132 ft 310 kts 281°
2026-04-28 18:49 47.61190 11.47801 24117 ft 310 kts 282°
2026-04-28 18:49 47.61480 11.45692 24133 ft 309 kts 281°
2026-04-28 18:49 47.62046 11.41499 24134 ft 309 kts 281°
2026-04-28 18:49 47.62463 11.38375 24139 ft 309 kts 281°
2026-04-28 18:50 47.62846 11.35263 24125 ft 309 kts 280°
2026-04-28 18:50 47.63224 11.32118 24127 ft 309 kts 279°
2026-04-28 18:50 47.63606 11.28937 24121 ft 310 kts 279°
2026-04-28 18:50 47.63982 11.25818 24113 ft 311 kts 279°
2026-04-28 18:51 47.64362 11.22659 24119 ft 310 kts 279°
2026-04-28 18:51 47.64745 11.19465 24115 ft 310 kts 279°
2026-04-28 18:51 47.65122 11.16333 24125 ft 310 kts 279°
2026-04-28 18:51 47.65505 11.13140 24131 ft 311 kts 279°
2026-04-28 18:52 47.65879 11.10011 24119 ft 311 kts 279°
2026-04-28 18:52 47.66266 11.06772 24112 ft 311 kts 279°
2026-04-28 18:52 47.66643 11.03609 24115 ft 311 kts 279°
2026-04-28 18:52 47.67015 11.00471 24123 ft 311 kts 279°
2026-04-28 18:53 47.67393 10.97287 24115 ft 311 kts 279°
2026-04-28 18:53 47.67765 10.94143 24118 ft 310 kts 279°
2026-04-28 18:53 47.68140 10.90958 24123 ft 310 kts 279°
2026-04-28 18:53 47.68515 10.87789 24090 ft 311 kts 279°
2026-04-28 18:54 47.68892 10.84590 23848 ft 318 kts 279°
2026-04-28 18:54 47.69278 10.81299 23588 ft 323 kts 279°
2026-04-28 18:54 47.69665 10.77978 23324 ft 327 kts 279°
2026-04-28 18:54 47.70057 10.74616 23072 ft 330 kts 279°
2026-04-28 18:55 47.70451 10.71221 22815 ft 333 kts 279°
2026-04-28 18:55 47.70840 10.67854 22559 ft 335 kts 279°
2026-04-28 18:55 47.71240 10.64404 22305 ft 336 kts 279°
2026-04-28 18:55 47.71641 10.60919 22033 ft 334 kts 279°
2026-04-28 18:56 47.72030 10.57532 21783 ft 332 kts 279°
2026-04-28 18:56 47.72421 10.54114 21512 ft 331 kts 279°
2026-04-28 18:56 47.72802 10.50786 21269 ft 331 kts 279°
2026-04-28 18:56 47.73186 10.47410 21021 ft 330 kts 279°
2026-04-28 18:57 47.73574 10.43997 20749 ft 329 kts 279°
2026-04-28 18:57 47.73959 10.40614 20478 ft 329 kts 279°
2026-04-28 18:57 47.74333 10.37304 20231 ft 329 kts 279°
2026-04-28 18:57 47.74591 10.33896 20114 ft 325 kts 271°
2026-04-28 18:58 47.74541 10.30527 20089 ft 319 kts 268°
2026-04-28 18:58 47.74460 10.27282 20102 ft 314 kts 268°
2026-04-28 18:58 47.74379 10.24042 20097 ft 310 kts 268°
2026-04-28 18:58 47.74300 10.20890 20093 ft 307 kts 268°
2026-04-28 18:59 47.74222 10.17671 20090 ft 303 kts 268°
2026-04-28 18:59 47.74145 10.14523 20089 ft 301 kts 268°
2026-04-28 18:59 47.74070 10.11410 19889 ft 306 kts 268°
2026-04-28 18:59 47.73991 10.08166 19634 ft 311 kts 268°
2026-04-28 19:00 47.73911 10.04898 19387 ft 315 kts 268°
2026-04-28 19:00 47.73831 10.01620 19137 ft 319 kts 268°
2026-04-28 19:00 47.73748 9.98292 18869 ft 321 kts 268°
2026-04-28 19:00 47.73664 9.94910 18604 ft 324 kts 268°
2026-04-28 19:01 47.73579 9.91527 18361 ft 326 kts 269°
2026-04-28 19:01 47.73494 9.88171 18099 ft 328 kts 269°
2026-04-28 19:01 47.73407 9.84770 17854 ft 329 kts 269°
2026-04-28 19:01 47.73318 9.81308 17583 ft 329 kts 269°
2026-04-28 19:02 47.73228 9.77883 17333 ft 330 kts 269°
2026-04-28 19:02 47.73137 9.74443 17139 ft 328 kts 269°
2026-04-28 19:02 47.73047 9.71130 17092 ft 324 kts 269°
2026-04-28 19:02 47.72956 9.67778 17085 ft 318 kts 269°
2026-04-28 19:03 47.72865 9.64496 17089 ft 313 kts 269°
2026-04-28 19:03 47.72776 9.61318 17085 ft 310 kts 269°
2026-04-28 19:03 47.72687 9.58140 17086 ft 306 kts 269°
2026-04-28 19:03 47.72596 9.54940 17086 ft 304 kts 269°
2026-04-28 19:04 47.72506 9.51805 17084 ft 302 kts 269°
2026-04-28 19:04 47.72414 9.48658 17085 ft 300 kts 269°
2026-04-28 19:04 47.72323 9.45594 17084 ft 298 kts 269°
2026-04-28 19:04 47.71952 9.42577 17059 ft 299 kts 249°
2026-04-28 19:05 47.70794 9.40012 17096 ft 300 kts 234°
2026-04-28 19:05 47.69476 9.37602 17087 ft 300 kts 233°
2026-04-28 19:05 47.68161 9.35216 17082 ft 299 kts 233°
2026-04-28 19:05 47.66830 9.32806 17084 ft 299 kts 233°
2026-04-28 19:06 47.65496 9.30388 16970 ft 302 kts 232°
2026-04-28 19:06 47.64133 9.27915 16734 ft 309 kts 232°
2026-04-28 19:06 47.62766 9.25436 16493 ft 315 kts 232°
2026-04-28 19:06 47.61351 9.22874 16242 ft 315 kts 232°
2026-04-28 19:07 47.59973 9.20342 15987 ft 313 kts 235°
2026-04-28 19:07 47.59114 9.17488 15876 ft 300 kts 258°
2026-04-28 19:07 47.58723 9.14495 15919 ft 287 kts 261°
2026-04-28 19:07 47.58361 9.11618 15950 ft 275 kts 261°
2026-04-28 19:08 47.58021 9.08871 15990 ft 265 kts 261°
2026-04-28 19:08 47.57708 9.06256 16013 ft 250 kts 263°
2026-04-28 19:08 47.57863 9.03828 16006 ft 231 kts 296°
2026-04-28 19:08 47.58785 9.02008 16037 ft 212 kts 312°
2026-04-28 19:09 47.59732 9.00387 16054 ft 204 kts 317°
2026-04-28 19:09 47.60981 8.99488 16072 ft 204 kts 353°
2026-04-28 19:09 47.62352 8.99875 16106 ft 204 kts 28°
2026-04-28 19:09 47.63356 9.01346 16118 ft 207 kts 68°
2026-04-28 19:10 47.63353 9.03474 16103 ft 213 kts 117°
2026-04-28 19:10 47.62284 9.04956 16078 ft 213 kts 165°
2026-04-28 19:10 47.60859 9.04948 16099 ft 211 kts 198°
2026-04-28 19:10 47.59647 9.03763 16072 ft 208 kts 242°
2026-04-28 19:11 47.59399 9.01741 16085 ft 205 kts 288°
2026-04-28 19:11 47.60157 8.99943 16096 ft 209 kts 314°
2026-04-28 19:11 47.61432 8.98905 16070 ft 216 kts 353°
2026-04-28 19:11 47.62922 8.99450 15901 ft 234 kts 34°
2026-04-28 19:12 47.63936 9.01463 15701 ft 253 kts 65°
2026-04-28 19:12 47.64763 9.03848 15489 ft 267 kts 49°
2026-04-28 19:12 47.66291 9.05443 15259 ft 277 kts 22°
2026-04-28 19:12 47.68016 9.06845 15034 ft 291 kts 38°
2026-04-28 19:13 47.69276 9.09257 14802 ft 305 kts 63°
2026-04-28 19:13 47.69792 9.12374 14574 ft 315 kts 86°
2026-04-28 19:13 47.69431 9.15617 14321 ft 324 kts 109°
2026-04-28 19:13 47.68237 9.18528 14083 ft 329 kts 128°
2026-04-28 19:14 47.66698 9.21063 13850 ft 332 kts 132°
2026-04-28 19:14 47.65113 9.23534 13588 ft 321 kts 134°
2026-04-28 19:14 47.63289 9.25275 13289 ft 310 kts 161°
2026-04-28 19:14 47.61168 9.25423 13018 ft 299 kts 192°
2026-04-28 19:15 47.59365 9.23964 12748 ft 289 kts 225°
2026-04-28 19:15 47.58471 9.21468 12706 ft 266 kts 262°
2026-04-28 19:15 47.58435 9.18880 12905 ft 241 kts 272°
2026-04-28 19:15 47.58440 9.17262 13044 ft 230 kts 270°
2026-04-28 19:16 47.58344 9.14204 13325 ft 209 kts 266°
2026-04-28 19:16 47.58210 9.12139 13534 ft 197 kts 264°
2026-04-28 19:16 47.58036 9.10132 13769 ft 194 kts 263°
2026-04-28 19:16 47.57823 9.08171 13961 ft 195 kts 261°
2026-04-28 19:17 47.57561 9.06149 14030 ft 202 kts 259°
2026-04-28 19:17 47.57474 9.04054 14066 ft 208 kts 285°
2026-04-28 19:17 47.58191 9.02203 14087 ft 212 kts 320°
2026-04-28 19:17 47.59520 9.01295 14097 ft 218 kts 354°
2026-04-28 19:18 47.61048 9.01649 14020 ft 231 kts 25°
2026-04-28 19:18 47.62297 9.03220 13808 ft 245 kts 55°
2026-04-28 19:18 47.62886 9.05601 13575 ft 259 kts 83°
2026-04-28 19:18 47.62761 9.08350 13349 ft 270 kts 98°
2026-04-28 19:19 47.62452 9.11117 13126 ft 277 kts 98°
2026-04-28 19:19 47.62055 9.13995 12868 ft 282 kts 107°
2026-04-28 19:19 47.61062 9.16435 12598 ft 275 kts 133°
2026-04-28 19:19 47.59443 9.17854 12326 ft 269 kts 165°
2026-04-28 19:20 47.57615 9.17680 12059 ft 262 kts 201°
2026-04-28 19:20 47.56252 9.16049 11798 ft 253 kts 238°
2026-04-28 19:20 47.55756 9.13637 11546 ft 244 kts 266°
2026-04-28 19:20 47.55743 9.11168 11303 ft 238 kts 278°
2026-04-28 19:21 47.56270 9.08925 11163 ft 223 kts 299°
2026-04-28 19:21 47.57010 9.07002 11098 ft 208 kts 303°
2026-04-28 19:21 47.57770 9.05274 11072 ft 193 kts 306°
2026-04-28 19:21 47.58546 9.03763 11055 ft 181 kts 321°
2026-04-28 19:22 47.59671 9.03173 11057 ft 175 kts 13°
2026-04-28 19:22 47.60451 9.03500 11110 ft 180 kts 21°
2026-04-28 19:22 47.62119 9.04341 11104 ft 200 kts 19°
2026-04-28 19:22 47.63473 9.05007 11091 ft 209 kts 19°
2026-04-28 19:23 47.64772 9.06020 11063 ft 211 kts 48°
2026-04-28 19:23 47.65292 9.07973 11071 ft 209 kts 89°
2026-04-28 19:23 47.65163 9.10135 11088 ft 216 kts 96°
2026-04-28 19:23 47.64926 9.12445 11100 ft 241 kts 102°
2026-04-28 19:24 47.64135 9.14675 11080 ft 247 kts 131°
2026-04-28 19:24 47.62664 9.16047 11076 ft 248 kts 162°
2026-04-28 19:24 47.60934 9.16155 11087 ft 255 kts 191°
2026-04-28 19:24 47.59333 9.14990 11087 ft 258 kts 220°
2026-04-28 19:25 47.58297 9.12841 11083 ft 257 kts 250°
2026-04-28 19:25 47.58043 9.10230 11098 ft 255 kts 272°
2026-04-28 19:25 47.58138 9.07574 11101 ft 257 kts 274°
2026-04-28 19:25 47.58248 9.04890 11089 ft 259 kts 274°
2026-04-28 19:26 47.58366 9.02197 11090 ft 260 kts 275°
2026-04-28 19:26 47.58483 8.99532 11081 ft 258 kts 275°
2026-04-28 19:26 47.58598 8.96881 10951 ft 259 kts 275°
2026-04-28 19:26 47.58712 8.94215 10715 ft 259 kts 275°
2026-04-28 19:27 47.58823 8.91586 10469 ft 258 kts 275°
2026-04-28 19:27 47.58921 8.88943 10216 ft 258 kts 271°
2026-04-28 19:27 47.58546 8.86360 9948 ft 257 kts 244°
2026-04-28 19:27 47.57415 8.84378 9702 ft 254 kts 215°
2026-04-28 19:28 47.55799 8.83408 9458 ft 250 kts 188°
2026-04-28 19:28 47.54089 8.83090 9226 ft 249 kts 185°
2026-04-28 19:28 47.52350 8.83017 8974 ft 246 kts 168°
2026-04-28 19:28 47.50809 8.84046 8721 ft 240 kts 138°
2026-04-28 19:29 47.49861 8.86005 8469 ft 234 kts 108°
2026-04-28 19:29 47.49669 8.87577 8293 ft 231 kts 90°
2026-04-28 19:29 47.49813 8.90724 7972 ft 231 kts 85°
2026-04-28 19:29 47.49957 8.93111 7724 ft 230 kts 84°
2026-04-28 19:30 47.50104 8.95430 7467 ft 222 kts 84°
2026-04-28 19:30 47.50205 8.97651 7197 ft 214 kts 93°
2026-04-28 19:30 47.49714 8.99667 6915 ft 206 kts 127°
2026-04-28 19:30 47.48571 9.00848 6648 ft 200 kts 162°
2026-04-28 19:31 47.47190 9.00926 6394 ft 197 kts 183°
2026-04-28 19:31 47.45832 9.00697 6139 ft 191 kts 184°
2026-04-28 19:31 47.44615 9.00083 5863 ft 189 kts 216°
2026-04-28 19:31 47.43887 8.98521 5585 ft 185 kts 251°
2026-04-28 19:32 47.43880 8.96568 6099 ft 182 kts 292°
2026-04-28 19:32 47.44101 8.94992 6821 ft 158 kts 272°
2026-04-28 19:32 47.44138 8.93082 7069 ft 200 kts 274°